When you browse on this site, cookies collect data to enhance your experience and personalize the content and advertising you see.
Visit our Privacy Policy to learn more. By continuing to use the site, you agree to this use of cookies and data.
  • In Österreich
  • Länderverzeichnis
  • Für 7 Tage
  • Wassertemperatur
  • Wetterkarte
  • News
  • Widgets
  • user-avatar
    Anmelden

    Stündliche Wetter Emiliano Zapata

    Heute, 18 August, Sonntag

    Zeit Temperatur Niederschläge Wind Luftdruck Luftfeuchtigkeit
    00:00 +13°C° 0 mm 1 m/S 565 mmHg 90%
    01:00 +13°C° 0 mm 1 m/S 564 mmHg 90%
    02:00 +11°C° 0 mm 0 m/S 564 mmHg 90%
    03:00 +11°C° 0 mm 0 m/S 564 mmHg 90%
    04:00 +11°C° 0 mm 0 m/S 564 mmHg 90%
    05:00 +10°C° 0 mm 0 m/S 564 mmHg 90%
    06:00 +13°C° 0 mm 0 m/S 565 mmHg 84%
    07:00 +15°C° 0 mm 0 m/S 567 mmHg 78%
    08:00 +17°C° 0 mm 0 m/S 568 mmHg 72%
    09:00 +20°C° 0 mm 1 m/S 568 mmHg 63%
    10:00 +21°C° 0 mm 2 m/S 569 mmHg 54%
    11:00 +24°C° 0 mm 2 m/S 570 mmHg 46%
    12:00 +24°C° 0 mm 3 m/S 569 mmHg 46%
    13:00 +24°C° 0 mm 3 m/S 569 mmHg 46%
    14:00 +25°C° 0 mm 3 m/S 568 mmHg 46%
    15:00 +22°C° 0.3 mm 3 m/S 567 mmHg 56%
    16:00 +20°C° 0.3 mm 3 m/S 566 mmHg 67%
    17:00 +19°C° 0.3 mm 3 m/S 566 mmHg 77%
    18:00 +17°C° 0.3 mm 3 m/S 565 mmHg 82%
    19:00 +16°C° 0.3 mm 2 m/S 565 mmHg 87%
    20:00 +14°C° 0.3 mm 2 m/S 565 mmHg 93%
    21:00 +14°C° 0 mm 2 m/S 565 mmHg 93%
    22:00 +13°C° 0 mm 2 m/S 565 mmHg 93%
    23:00 +13°C° 0 mm 1 m/S 565 mmHg 94%

    Morgen, 19 August, Montag

    Zeit Temperatur Niederschläge Wind Luftdruck Luftfeuchtigkeit
    00:00 +13°C° 0 mm 1 m/S 565 mmHg 94%
    01:00 +13°C° 0 mm 1 m/S 564 mmHg 94%
    02:00 +12°C° 0 mm 1 m/S 564 mmHg 94%
    03:00 +12°C° 0 mm 1 m/S 564 mmHg 94%
    04:00 +12°C° 0 mm 1 m/S 564 mmHg 95%
    05:00 +11°C° 0 mm 1 m/S 564 mmHg 95%
    06:00 +13°C° 0 mm 1 m/S 565 mmHg 90%
    07:00 +14°C° 0 mm 2 m/S 566 mmHg 85%
    08:00 +16°C° 0 mm 2 m/S 567 mmHg 80%
    09:00 +18°C° 0 mm 3 m/S 568 mmHg 72%
    10:00 +20°C° 0 mm 4 m/S 568 mmHg 63%
    11:00 +21°C° 0 mm 5 m/S 569 mmHg 55%
    12:00 +21°C° 0.2 mm 6 m/S 568 mmHg 58%
    13:00 +21°C° 0.2 mm 6 m/S 568 mmHg 62%
    14:00 +20°C° 0.2 mm 7 m/S 567 mmHg 65%
    15:00 +19°C° 0.3 mm 6 m/S 566 mmHg 70%
    16:00 +17°C° 0.3 mm 5 m/S 566 mmHg 74%
    17:00 +15°C° 0.3 mm 5 m/S 565 mmHg 78%
    18:00 +14°C° 0 mm 4 m/S 565 mmHg 83%
    19:00 +12°C° 0 mm 3 m/S 565 mmHg 88%
    20:00 +12°C° 0 mm 2 m/S 565 mmHg 93%
    21:00 +10°C° 0 mm 2 m/S 564 mmHg 93%
    22:00 +9°C° 0 mm 2 m/S 564 mmHg 93%
    23:00 +9°C° 0 mm 2 m/S 564 mmHg 93%

    übermorgen, 20 August, Dienstag

    Zeit Temperatur Niederschläge Wind Luftdruck Luftfeuchtigkeit
    00:00 +8°C° 0 mm 2 m/S 564 mmHg 92%
    01:00 +8°C° 0 mm 2 m/S 563 mmHg 92%
    02:00 +8°C° 0 mm 1 m/S 563 mmHg 91%
    03:00 +8°C° 0 mm 1 m/S 563 mmHg 91%
    04:00 +8°C° 0 mm 1 m/S 563 mmHg 91%
    05:00 +8°C° 0 mm 1 m/S 563 mmHg 91%
    06:00 +10°C° 0 mm 1 m/S 564 mmHg 83%
    07:00 +12°C° 0 mm 2 m/S 566 mmHg 75%
    08:00 +15°C° 0 mm 2 m/S 567 mmHg 68%
    09:00 +17°C° 0 mm 2 m/S 568 mmHg 63%
    10:00 +18°C° 0 mm 3 m/S 569 mmHg 58%
    11:00 +20°C° 0 mm 4 m/S 569 mmHg 53%
    12:00 +20°C° 0.2 mm 4 m/S 569 mmHg 56%
    13:00 +20°C° 0.2 mm 5 m/S 568 mmHg 59%
    14:00 +20°C° 0.2 mm 5 m/S 568 mmHg 62%
    15:00 +19°C° 0.3 mm 5 m/S 567 mmHg 68%
    16:00 +17°C° 0.3 mm 5 m/S 567 mmHg 74%
    17:00 +15°C° 0.3 mm 4 m/S 566 mmHg 80%
    18:00 +14°C° 0.3 mm 4 m/S 566 mmHg 84%
    19:00 +13°C° 0.3 mm 3 m/S 566 mmHg 89%
    20:00 +13°C° 0.3 mm 2 m/S 566 mmHg 94%
    21:00 +12°C° 0.1 mm 2 m/S 566 mmHg 94%
    22:00 +12°C° 0.1 mm 2 m/S 566 mmHg 93%
    23:00 +12°C° 0.1 mm 2 m/S 566 mmHg 93%

    21 August, Mittwoch

    Zeit Temperatur Niederschläge Wind Luftdruck Luftfeuchtigkeit
    00:00 +12°C° 0 mm 2 m/S 566 mmHg 93%
    01:00 +11°C° 0 mm 1 m/S 565 mmHg 92%
    02:00 +11°C° 0 mm 1 m/S 565 mmHg 91%
    03:00 +10°C° 0 mm 1 m/S 564 mmHg 93%
    04:00 +10°C° 0 mm 1 m/S 564 mmHg 94%
    05:00 +9°C° 0 mm 1 m/S 564 mmHg 95%
    06:00 +11°C° 0 mm 1 m/S 565 mmHg 90%
    07:00 +12°C° 0 mm 2 m/S 566 mmHg 85%
    08:00 +14°C° 0 mm 2 m/S 567 mmHg 80%
    09:00 +16°C° 0 mm 2 m/S 568 mmHg 71%
    10:00 +18°C° 0 mm 3 m/S 568 mmHg 62%
    11:00 +20°C° 0 mm 3 m/S 569 mmHg 53%
    12:00 +20°C° 0.2 mm 3 m/S 568 mmHg 57%
    13:00 +20°C° 0.2 mm 3 m/S 568 mmHg 61%
    14:00 +20°C° 0.2 mm 4 m/S 567 mmHg 64%
    15:00 +18°C° 0.7 mm 4 m/S 567 mmHg 71%
    16:00 +17°C° 0.7 mm 3 m/S 566 mmHg 77%
    17:00 +16°C° 0.7 mm 3 m/S 566 mmHg 83%
    18:00 +14°C° 0.3 mm 3 m/S 566 mmHg 86%
    19:00 +14°C° 0.3 mm 2 m/S 566 mmHg 90%
    20:00 +13°C° 0.3 mm 2 m/S 566 mmHg 94%
    21:00 +13°C° 0.2 mm 2 m/S 566 mmHg 94%
    22:00 +13°C° 0.2 mm 1 m/S 566 mmHg 93%
    23:00 +13°C° 0.2 mm 1 m/S 566 mmHg 93%

    22 August, Donnerstag

    Zeit Temperatur Niederschläge Wind Luftdruck Luftfeuchtigkeit
    00:00 +12°C° 0.1 mm 1 m/S 566 mmHg 94%
    01:00 +12°C° 0.1 mm 1 m/S 565 mmHg 94%
    02:00 +12°C° 0.1 mm 1 m/S 565 mmHg 94%
    03:00 +12°C° 0 mm 1 m/S 565 mmHg 94%
    04:00 +11°C° 0 mm 1 m/S 565 mmHg 94%
    05:00 +11°C° 0 mm 1 m/S 565 mmHg 94%
    06:00 +12°C° 0 mm 1 m/S 566 mmHg 90%
    07:00 +14°C° 0 mm 1 m/S 567 mmHg 86%
    08:00 +15°C° 0 mm 1 m/S 568 mmHg 82%
    09:00 +16°C° 0.2 mm 1 m/S 568 mmHg 79%
    10:00 +18°C° 0.2 mm 1 m/S 568 mmHg 76%
    11:00 +18°C° 0.2 mm 2 m/S 568 mmHg 74%
    12:00 +19°C° 0.6 mm 2 m/S 568 mmHg 70%
    13:00 +19°C° 0.6 mm 2 m/S 568 mmHg 67%
    14:00 +20°C° 0.6 mm 2 m/S 568 mmHg 64%
    15:00 +19°C° 1.4 mm 2 m/S 567 mmHg 70%
    16:00 +18°C° 1.4 mm 2 m/S 567 mmHg 77%
    17:00 +17°C° 1.4 mm 2 m/S 567 mmHg 83%
    18:00 +16°C° 1.2 mm 1 m/S 567 mmHg 87%
    19:00 +16°C° 1.2 mm 1 m/S 567 mmHg 90%
    20:00 +15°C° 1.2 mm 1 m/S 567 mmHg 93%
    21:00 +14°C° 0.7 mm 1 m/S 567 mmHg 93%
    22:00 +13°C° 0.7 mm 0 m/S 567 mmHg 93%
    23:00 +13°C° 0.7 mm 0 m/S 567 mmHg 93%

    23 August, Freitag

    Zeit Temperatur Niederschläge Wind Luftdruck Luftfeuchtigkeit
    00:00 +12°C° 0.3 mm 0 m/S 566 mmHg 93%
    01:00 +13°C° 0.3 mm 1 m/S 566 mmHg 93%
    02:00 +13°C° 0.3 mm 1 m/S 566 mmHg 94%
    03:00 +13°C° 0.1 mm 1 m/S 566 mmHg 94%
    04:00 +13°C° 0.1 mm 1 m/S 566 mmHg 94%
    05:00 +13°C° 0.1 mm 1 m/S 566 mmHg 94%
    06:00 +13°C° 0 mm 1 m/S 566 mmHg 90%
    07:00 +14°C° 0 mm 1 m/S 567 mmHg 87%
    08:00 +15°C° 0 mm 1 m/S 567 mmHg 83%
    09:00 +18°C° 0.3 mm 1 m/S 568 mmHg 77%
    10:00 +19°C° 0.3 mm 1 m/S 568 mmHg 70%
    11:00 +21°C° 0.3 mm 1 m/S 569 mmHg 64%
    12:00 +21°C° 1.6 mm 1 m/S 568 mmHg 67%
    13:00 +19°C° 1.6 mm 2 m/S 568 mmHg 70%
    14:00 +19°C° 1.6 mm 2 m/S 567 mmHg 73%
    15:00 +18°C° 1.1 mm 2 m/S 566 mmHg 77%
    16:00 +18°C° 1.1 mm 1 m/S 566 mmHg 81%
    17:00 +16°C° 1.1 mm 1 m/S 566 mmHg 85%
    18:00 +15°C° 0.2 mm 1 m/S 566 mmHg 86%
    19:00 +14°C° 0.2 mm 1 m/S 566 mmHg 87%
    20:00 +14°C° 0.2 mm 2 m/S 566 mmHg 88%
    21:00 +13°C° 0 mm 1 m/S 566 mmHg 89%
    22:00 +13°C° 0 mm 1 m/S 566 mmHg 91%
    23:00 +12°C° 0 mm 1 m/S 566 mmHg 92%
    Mehr zeigen